Weather History for KBED - November, 2012

Change the Weather History Date:

Sunday, November 4, 2012

  Actual Average Record
Temperature  
Mean Temperature 42 °F -  
Max Temperature 52 °F 58 °F 77 °F (1987)
Min Temperature 33 °F 37 °F 21 °F (2002)
Degree Days  
Heating Degree Days 24    
Moisture  
Dew Point 31 °F    
Average Humidity 67    
Maximum Humidity 85    
Minimum Humidity 52    
Precipitation  
Precipitation 0.00 in - - ()
Sea Level Pressure  
Sea Level Pressure 29.91 in    
Wind  
Wind Speed 8 mph (WNW)    
Max Wind Speed 14 mph    
Max Gust Speed 18 mph    
Visibility 10 miles    
Events      
Averages and records for this station are not official NWS values.
T = Trace of Precipitation, MM = Missing Value Source: NWS Daily Summary

Daily Weather History Graph

Daily Weather History Graph

Search for Another Location

Airport or City:

Trip Planner

Search our weather history database for the weather conditions in past years. The results will help you decide how hot, cold, wet, or windy it might be!

Date:

Astronomy

Nov. 04, 2012 Rise Set
Actual Time 6:22 AM EST 4:33 PM EST
Civil Twilight 5:53 AM EST 5:03 PM EST
Nautical Twilight 5:20 AM EST 5:36 PM EST
Astronomical Twilight 4:47 AM EST 6:09 PM EST
Moon 9:07 PM EST (11/4) 11:06 AM EST (11/4)
Length of Visible Light 11h 09m
Length of Day
10h 10m
Waning Gibbous, 72% of the Moon is Illuminated
Nov 4
Waning Gibbous
Nov 6
Last Quarter
Nov 13
New
Nov 20
First Quarter
Nov 28
Full

Hourly Weather History & Observations

Time (EST) Temp. Windchill Dew Point Humidity Pressure Visibility Wind Dir Wind Speed Gust Speed Precip Events Conditions
12:56 AM 37.9 °F 32.7 °F 28.9 °F 70% 29.83 in 10.0 mi West 6.9 mph - N/A   Clear
1:56 AM 39.0 °F 34.8 °F 30.0 °F 70% 29.83 in 10.0 mi WSW 5.8 mph - N/A   Overcast
1:56 AM 37.0 °F 31.6 °F 28.9 °F 73% 29.84 in 10.0 mi WSW 6.9 mph - N/A   Clear
2:56 AM 36.0 °F 30.3 °F 28.9 °F 76% 29.85 in 10.0 mi WSW 6.9 mph - N/A   Clear
3:56 AM 35.1 °F 29.3 °F 28.9 °F 78% 29.85 in 10.0 mi West 6.9 mph - N/A   Clear
4:56 AM 34.0 °F 31.0 °F 28.9 °F 82% 29.87 in 10.0 mi West 3.5 mph - N/A   Clear
5:56 AM 33.1 °F 27.7 °F 28.9 °F 85% 29.88 in 10.0 mi WSW 5.8 mph - N/A   Clear
6:56 AM 34.0 °F 29.8 °F 30.0 °F 85% 29.90 in 10.0 mi WSW 4.6 mph - N/A   Clear
7:56 AM 41.0 °F 36.4 °F 33.1 °F 73% 29.91 in 10.0 mi West 6.9 mph - N/A   Clear
8:56 AM 45.0 °F 38.9 °F 33.1 °F 63% 29.92 in 10.0 mi WNW 12.7 mph 18.4 mph N/A   Partly Cloudy
9:56 AM 48.0 °F - 34.0 °F 58% 29.92 in 10.0 mi NNW 11.5 mph - N/A   Clear
10:56 AM 50.0 °F - 34.0 °F 54% 29.91 in 10.0 mi Variable 5.8 mph - N/A   Scattered Clouds
11:56 AM 50.0 °F - 34.0 °F 54% 29.90 in 10.0 mi NW 8.1 mph 18.4 mph N/A   Partly Cloudy
12:56 PM 50.0 °F - 33.1 °F 52% 29.90 in 10.0 mi WNW 12.7 mph - N/A   Scattered Clouds
1:56 PM 48.9 °F - 33.1 °F 54% 29.90 in 10.0 mi WNW 13.8 mph - N/A   Partly Cloudy
2:56 PM 48.0 °F - 33.1 °F 56% 29.91 in 10.0 mi WNW 12.7 mph - N/A   Scattered Clouds
3:56 PM 45.0 °F 38.5 °F 32.0 °F 60% 29.92 in 10.0 mi WNW 13.8 mph - N/A   Clear
4:56 PM 41.0 °F 35.8 °F 30.9 °F 67% 29.95 in 10.0 mi NW 8.1 mph - N/A   Clear
5:56 PM 41.0 °F 35.8 °F 30.0 °F 65% 29.96 in 10.0 mi WNW 8.1 mph - N/A   Clear
6:56 PM 37.9 °F 32.7 °F 28.9 °F 70% 29.95 in 10.0 mi WNW 6.9 mph - N/A   Clear
7:56 PM 39.9 °F 36.7 °F 30.0 °F 68% 29.96 in 10.0 mi NNW 4.6 mph - N/A   Overcast
8:56 PM 39.0 °F 35.7 °F 28.9 °F 67% 29.97 in 10.0 mi North 4.6 mph - N/A   Mostly Cloudy
9:56 PM 39.9 °F 35.1 °F 28.0 °F 63% 29.98 in 10.0 mi NNW 6.9 mph - N/A   Mostly Cloudy
10:56 PM 39.0 °F 32.3 °F 27.0 °F 62% 29.98 in 10.0 mi NNW 10.4 mph - N/A   Overcast